This is the latest recevied weather packets stored in our database for station/object N1LJK-13. If no packets are shown the sender has not sent any weather packets the latest 10 day(s).
| Time | Temp. | Humidity | Pressure | Rain* | Wind** | Luminosity | Snow |
|---|---|---|---|---|---|---|---|
| 1777549619 | 6.67° C | 98% | 1012.3 hPa | 2.29 mm | - | - | - |
| 1777547219 | 6.67° C | 98% | 1012.3 hPa | 7.87 mm | - | - | - |
| 1777546019 | 6.67° C | 98% | 1012.2 hPa | 8.64 mm | - | - | - |
| 1777543619 | 6.67° C | 98% | 1011.3 hPa | 5.33 mm | - | - | - |
| 1777542419 | 6.67° C | 98% | 1011.6 hPa | 4.83 mm | - | - | - |
| 1777540019 | 6.67° C | 98% | 1011.8 hPa | 3.3 mm | - | - | - |
| 1777538819 | 6.67° C | 98% | 1012 hPa | 2.29 mm | - | - | - |
| 1777537620 | 6.67° C | 98% | 1012.2 hPa | 1.78 mm | - | - | - |
| 1777536419 | 6.11° C | 98% | 1012.3 hPa | 1.52 mm | - | - | - |
| 1777535220 | 6.11° C | 98% | 1012.5 hPa | 1.52 mm | - | - | - |
| 1777534019 | 6.11° C | 98% | 1012.8 hPa | 0.76 mm | - | - | - |
| 1777532819 | 6.11° C | 98% | 1013.2 hPa | 0.25 mm | - | - | - |
| 1777531620 | 6.11° C | 98% | 1013.3 hPa | 0.25 mm | - | - | - |
| 1777529220 | 6.11° C | 98% | 1013.8 hPa | 1.02 mm | - | - | - |
| 1777528017 | 6.11° C | 98% | 1014.2 hPa | 1.02 mm | - | - | - |
| 1777526818 | 6.11° C | 98% | 1014.5 hPa | 1.52 mm | - | - | - |
| 1777525618 | 6.11° C | 98% | 1014.7 hPa | 0.76 mm | - | - | - |
| 1777523217 | 6.11° C | 98% | 1015.2 hPa | 0 mm | - | - | - |
| 1777522017 | 6.11° C | 98% | 1015.2 hPa | 0.25 mm | - | - | - |
| 1777520818 | 6.11° C | 98% | 1015.4 hPa | 0.25 mm | - | - | - |
| 1777519619 | 6.11° C | 98% | 1015.5 hPa | 0.25 mm | - | - | - |
| 1777518418 | 6.11° C | 98% | 1016 hPa | 0 mm | - | - | - |
| 1777517218 | 6.11° C | 98% | 1016 hPa | 0 mm | - | - | - |
| 1777516018 | 6.11° C | 98% | 1016.4 hPa | 0.25 mm | - | - | - |
| 1777514817 | 6.11° C | 98% | 1016.5 hPa | 0.25 mm | - | - | - |
* Rain latest hour (hover to see other rain measurements)
** Current wind speed in m/s (hover to see current wind gust speed)